Regional Weather Roundup
Issued by NWS

Home | Current Version | Previous Version | Graphics & Text | Print | Product List | Glossary On
Versions: 1 2 3 4 5 6 7 8 9 10 11 12 13 14 15 16 17 18 19 20 21 22 23 24 25 26 27 28 29 30 31 32 33 34 35 36 37 38 39 40 41 42 43 44 45 46 47 48 49 50
000
ASUS43 KOAX 300310
RWRNE

WEATHER ROUNDUP FOR NEBRASKA
NATIONAL WEATHER SERVICE OMAHA NE
1000 PM CDT WED JUL 29 2015

NOTES: SATELLITE DATA IS BEING USED TO AUGMENT CLOUD COVER ABOVE
       12000 FEET.
       "FAIR" INDICATES FEW OR NO CLOUDS BELOW 12,000 FEET WITH NO
       SIGNIFICANT WEATHER AND/OR OBSTRUCTIONS TO VISIBILITY.

  * THESE STATIONS DO NOT REPORT WEATHER SUCH AS RAIN...SNOW OR FOG.

NEZ001>004-019>022-054>056-300400-
NEBRASKA PANHANDLE

CITY           SKY/WX    TMP DP  RH WIND       PRES   REMARKS
SCOTTSBLUFF    PTCLDY    71  58  63 MISG      30.20R
ALLIANCE       CLEAR     66  51  58 S9        30.20R
CHADRON        CLEAR     68  51  54 NE6       30.18R
KIMBALL        MOCLDY    70  45  40 S9        30.26R
SIDNEY         PTCLDY    70  43  37 S12       30.26R
$$

NEZ057>060-069>072-079>082-300400-
SOUTHWEST NEBRASKA

CITY           SKY/WX    TMP DP  RH WIND       PRES   REMARKS
NORTH PLATTE   CLEAR     62  57  83 SE6       30.22R
IMPERIAL       CLEAR     70  45  40 S9        30.25R
LEXINGTON      CLEAR     67  58  71 SE6       30.23R
MCCOOK         CLEAR     69  56  62 SE3       30.23R
OGALLALA       PTCLDY    69  52  54 S5        30.22S
$$

NEZ005>010-023>029-035>040-094-300400-
NORTH CENTRAL NEBRASKA

CITY           SKY/WX    TMP DP  RH WIND       PRES   REMARKS
VALENTINE      MOCLDY    76  49  38 E10       30.16R
AINSWORTH      CLEAR     67  55  65 S7        30.17S
BROKEN BOW     CLEAR     64  59  83 CALM      30.21R
O`NEILL        CLEAR     72  55  55 S5        30.16R
ORD            CLEAR     65  56  72 SW7       30.17R
THEDFORD       CLEAR     72  51  47 S8        30.21R
$$

NEZ041-046>049-061>064-073>077-083>087-300400-
SOUTH CENTRAL NEBRASKA

CITY           SKY/WX    TMP DP  RH WIND       PRES   REMARKS
GRAND ISLAND   CLEAR     68  58  70 SW6       30.20R
AURORA         CLEAR     67  62  84 SW6       30.20R
HASTINGS       CLEAR     72  56  57 CALM      30.21R
HEBRON         CLEAR     66  60  80 CALM      30.19R
HOLDREGE       CLEAR     63  57  82 E5        30.23R
KEARNEY *      CLEAR     68  55  64 SE3       30.22R
YORK           CLEAR     66  63  88 CALM      30.19R
$$

NEZ011>018-030>034-042>045-300400-
NORTHEAST NEBRASKA

CITY           SKY/WX    TMP DP  RH WIND       PRES   REMARKS
NORFOLK        CLEAR     69  59  70 S10       30.15R
ALBION         CLEAR     68  56  64 CALM      30.17R
BLAIR          CLEAR     70  59  68 SW6       30.15S
COLUMBUS *     CLEAR     73  57  56 SW7       30.17R
FREMONT        CLEAR     73  60  65 SW6       30.16R
TEKAMAH        CLEAR     69  65  86 SW6       30.13R
WAYNE          CLEAR     67  60  78 S8        30.14R
$$

NEZ050>053-065>068-078-088>093-300400-
SOUTHEAST NEBRASKA

CITY           SKY/WX    TMP DP  RH WIND       PRES   REMARKS
LINCOLN        CLEAR     73  59  61 S3        30.17R
OMAHA EPPLEY   CLEAR     73  61  65 SE5       30.14R
BEATRICE       CLEAR     71  64  79 CALM      30.17S
FALLS CITY     CLEAR     71  66  84 CALM      30.15S
NEBRASKA CITY  CLEAR     72  58  60 SW3       30.16S
PLATTSMOUTH    CLEAR     71  56  60 SW5       30.16R
$$

NEZ044-045-051>053-067-300400-
OMAHA AREA

CITY           SKY/WX    TMP DP  RH WIND       PRES   REMARKS
OMAHA EPPLEY   CLEAR     73  61  65 SE5       30.14R
BLAIR          CLEAR     70  59  68 SW6       30.15S
FREMONT        CLEAR     73  60  65 SW6       30.16R
MILLARD        CLEAR     70  63  78 CALM      30.15R
OFFUTT AFB     CLEAR     68  63  84 S2        30.14R
PLATTSMOUTH    CLEAR     71  56  60 SW5       30.16R
WAHOO          FAIR      69  61  77 CALM      30.16R
$$



USA.gov is the U.S. government's official web portal to all federal, state and local government web resources and services.